OBJECT D, 65998

Orbit data source: Space-Track

You're viewing an Uncataloged Satellite

Recently launched and/or uncataloged satellites may have evolving metadata. Metadata may include but not limited to: Owner, Maufacturer, Bus, Motor, and Mission.

OBJECT D, 65998 is a satellite owned by Zhongguo Xingwang (CN) in LEO that was launched on Thu, 16 Oct 2025 UTC via a CHANG ZHENG 8A launch vehicle from the Wenchang Satellite Launch Center (WSC). Unknown objects in Earth's orbit typically refer to objects detected orbiting the Earth but have not yet been identified or cataloged. These objects could be anything from previously untracked satellites, spent rocket stages, debris from satellite collisions, or even natural meteoroids temporarily captured by Earth's gravity.

Loading next visibility...
Identifier
65998, 2025-231D
Orbit
LEO
Country
Flag of CNCN / PRC
Related business
Manufacturer
CAST
Mission
Operational spacecraft
Bus & Motor
GUOWANG C, Unknown motor
Mass
~800 kg wet, ~800 kg dry
Launch date (UTC)
2025-10-16 (4 days ago)
Launch vehicle
CHANG ZHENG 8A
Launch site
Wenchang Satellite Launch Center (WSC)
Object type
Unknown
Shape & HBR
Unknown
Radar Cross Section
RCS unknown

Expand to show TLE details & history
Last TLE update: 7 hours ago

TLE from 7 hours ago
0 OBJECT D
1 65998U 25231D   25292.94861387 -.00000103  00000-0  29981-4 0  9994
2 65998  50.0012 341.9799 0006440 277.2916  82.7257 14.05648087   551
Epoch: 2025-10-19T22:46Z
TLE epoch observation values (Epoch: 2025-10-19T22:46:00.238Z)
Latitude
-0.00002°
Longitude
-28.17906°
Altitude
874.239 km
Speed
7.417 km/s
True Right ascension
22h 47m 55s
True Declination
0° 00' 00"
Sunlit
Object was in full shadow at epoch
Visualization orbit readout
Latitude
Unknown
Longitude
Unknown
Altitude
Unknown
Speed
Unknown
Apparent Right ascension
Unknown
Apparent Declination
Unknown
Sunlit
N/A
Visualization observer readout
Local Sidereal Time
00:30:11
Azimuth
Unknown
Elevation
Unknown
Doppler factor
Unknown
Orbital elements
Apogee altitude
879.705 km
Perigee altitude
870.363 km
Semi-major axis
7,253.171 km
Eccentricity
0.00064
Inclination
50.0012°
RAAN
341.9799°
Arg. of periapsis
277.2916°
True anomaly
82.79891°
Mean anomaly
82.7257°
Eccentric anomaly
82.7623°
Mean motion
3.51359 °/min
Orbital period
102.46 mins
BSTAR
0.000029981
Loading maneuver chart data...
Computing Atmospheric mass density...
Loading historical data...
Loading historical data...
Loading historical data...
Loading historical data...
Loading historical data...
Loading historical data...
Loading historical data...

Documentation

Showing up to 5 results
|